Tiempo atmosférico en la estación meteorológica de Alcala de Henares, Madrid (605 m.)



Fecha
DESCASC
Temp. máxima en grados centígrados (hora)
DESCASC
Temp. mínima en grados centígrados (hora)
DESCASC
Temp. media en grados centígrados
DESCASC
Racha de viento máxima en m/sg (hora)
DESCASC
Velocidad máxima media en intervalos de 10 minutos(hora)
DESCASC
Precipitaciones diarias en mm
DESCASC
Precipitaciones de 00:00 a 06:00 en mm
DESCASC
Precipitaciones de 06:00 a 12:00 en mm
DESCASC
Precipitaciones de 12:00 a 18:00 en mm
DESCASC
Precipitaciones de 18:00 a 24:00 en mm
DESCASC
05-12-2019 13.3 (15:20) 5.4 (23:30) 9.4 10.56 (11:50) 7.5 (11:30) 0 0 0 0 0
04-12-2019 13 (14:40) 4.8 (03:40) 8.9 12.5 (15:00) 8.61 (15:00) 4.2 2.2 1.8 0.2 0
03-12-2019 9.4 (15:10) 1.3 (00:00) 5.3 -- (--) -- (--) -- 0 0 0 --
02-12-2019 11.8 (14:40) 4.2 (00:00) 8 12.5 (14:50) 8.33 (13:10) 0 0 0 0 0
01-12-2019 10.2 (14:40) 6 (00:00) 8.1 6.39 (20:50) 4.44 (20:50) 0.8 0.2 0 0.2 0.4
30-11-2019 14.8 (17:00) 7 (00:00) 10.9 10 (14:30) 6.11 (17:10) 9.8 0.6 0.2 0 9
29-11-2019 14.9 (14:40) 11.4 (00:00) 13.1 9.72 (01:30) 6.11 (00:10) 0 0 0 0 0
28-11-2019 12 (16:40) 7.8 (00:00) 9.9 9.72 (23:20) 6.67 (23:30) 0 0 0 0 0
27-11-2019 13.8 (14:30) 9.2 (00:00) 11.5 12.22 (00:10) 7.5 (00:20) 0.8 0.8 0 0 0
26-11-2019 14.1 (16:20) 8.1 (00:00) 11.1 13.33 (21:40) 8.61 (22:00) 0.8 0 0 0.4 0.4
25-11-2019 16.5 (15:10) 8.8 (00:00) 12.7 7.78 (15:50) 5 (12:40) 0.6 0.6 0 0 0
24-11-2019 13.2 (16:00) 3.6 (00:00) 8.4 11.39 (04:40) 5.83 (05:30) 0 0 0 0 0
23-11-2019 13 (14:40) 7.2 (00:00) 10.1 11.67 (07:30) 8.06 (05:10) 0 0 0 0 0
22-11-2019 12.7 (15:30) 7.1 (00:00) 9.9 14.72 (15:20) 8.61 (13:10) 3.4 0.2 1.6 1.6 0
21-11-2019 10 (15:40) 5.7 (00:00) 7.8 6.67 (15:40) 3.61 (14:30) 0.2 0 0 0.2 0
20-11-2019 9.3 (14:20) -1.2 (-00:0) 4.1 6.39 (17:10) 3.06 (17:10) 2.8 0 0 0.6 2.2
19-11-2019 10.3 (14:10) -4.2 (-00:0) 3.1 5.83 (14:00) 3.61 (13:50) 0 0 0 0 0
18-11-2019 11 (13:10) -0.5 (-00:0) 5.3 10.56 (13:20) 6.67 (13:20) 0 0 0 0 0
17-11-2019 8.3 (13:10) -2.2 (-00:0) 3.1 10 (13:30) 6.39 (13:40) 0.6 0 0 0.4 0.2
16-11-2019 11 (15:40) -0.4 (00:00) 5.3 8.61 (04:10) 4.44 (03:40) 0 0 0 0 0
15-11-2019 9.8 (14:00) 2.3 (00:00) 6.1 9.17 (14:10) 5.56 (14:10) 0 0 0 0 0
14-11-2019 10.4 (15:40) 3.8 (00:00) 7.1 18.06 (17:00) 11.67 (17:00) 2 0 1.2 0.2 0.6
13-11-2019 17.1 (16:00) 6.5 (00:00) 11.8 11.11 (04:40) 7.22 (04:00) 2.6 2.2 0.2 0.2 0
12-11-2019 14 (15:00) 0.6 (00:00) 7.3 8.61 (22:10) 5.28 (22:00) 0.4 0 0 0 0.4
11-11-2019 13 (16:10) 0.5 (03:20) 6.8 5 (18:10) 2.78 (18:50) 0 0 0 0 0
10-11-2019 11.1 (13:40) 2.2 (00:00) 6.7 10.56 (17:40) 5.83 (11:40) 0 0 0 0 0
09-11-2019 12.4 (13:30) 1.5 (00:00) 6.9 10.28 (17:00) 6.39 (17:20) 0 0 0 0 0
08-11-2019 13.2 (16:20) 3.5 (00:00) 8.3 11.67 (14:50) 6.67 (13:40) 0 0 0 0 0

Gráficas

Temp. máximas Temp. mínimas Temp. medias Precipitaciones Rachas de viento máximas Velocidades máximas media en intervalos de 10 minutos

Datos horarios

Fecha y hora oficial Temperatura (ºC) Velocidad del viento (km/h) Dirección del viento Racha (km/h) Dirección de racha Precipitación (mm) Presión (hPa) Tendencia (hPa) Humedad (%)
2019-12-07 23:00:00 2.8 0 Calma 4 Este 0 -- -- 92
2019-12-07 22:00:00 3.6 4 Nordeste 5 Nordeste 0 -- -- 92
2019-12-07 21:00:00 4.5 4 Este 6 Este 0 -- -- 89
2019-12-07 20:00:00 5.8 0 Calma -- -- 0 -- -- 86
2019-12-07 19:00:00 7.5 0 Calma 4 Sur 0 -- -- 81
2019-12-07 18:00:00 11.3 4 Sur 6 Sudoeste 0 -- -- 70
2019-12-07 17:00:00 13.8 4 Oeste 7 Oeste 0 -- -- 62
2019-12-07 16:00:00 14.1 5 Oeste 9 Oeste 0 -- -- 61
2019-12-07 15:00:00 13.7 0 Calma 8 Noroeste 0 -- -- 64
2019-12-07 14:00:00 12.2 2 Noroeste 6 Oeste 0 -- -- 68
2019-12-07 13:00:00 11 3 Este 10 Este 0 -- -- 74
2019-12-07 12:00:00 8.3 7 Nordeste 12 Este 0 -- -- 82
2019-12-07 11:00:00 5.9 8 Nordeste 13 Nordeste 0 -- -- 86
2019-12-07 10:00:00 3.6 6 Nordeste 10 Nordeste 0 -- -- 94
2019-12-07 09:00:00 1.3 5 Este 14 Nordeste 0 -- -- 96
2019-12-07 08:00:00 1 5 Nordeste 12 Nordeste 0 -- -- 94
2019-12-07 07:00:00 1.5 5 Nordeste 14 Nordeste 0 -- -- 95
2019-12-07 06:00:00 1.8 6 Nordeste 11 Este 0 -- -- 94
2019-12-07 05:00:00 2.2 6 Este 13 Este 0 -- -- 94
2019-12-07 04:00:00 2.5 6 Nordeste 14 Nordeste 0 -- -- 94
2019-12-07 03:00:00 3 9 Nordeste 13 Nordeste 0 -- -- 93
2019-12-07 02:00:00 3.7 7 Nordeste 10 Nordeste 0 -- -- 93
2019-12-07 01:00:00 4.8 5 Este 9 Nordeste 0 -- -- 94
2019-12-07 00:00:00 4.6 4 Nordeste 7 Este 0 -- -- 94
2019-12-06 23:00:00 3.8 5 Nordeste 6 Nordeste 0 -- -- 93
2019-12-06 22:00:00 4.4 3 Nordeste 4 Nordeste 0 -- -- 90
2019-12-06 21:00:00 5.9 3 Norte 4 Noroeste 0 -- -- 86
2019-12-06 20:00:00 8 3 Sudoeste 7 Sudoeste 0 -- -- 83
2019-12-06 19:00:00 8.8 4 Sur 9 Sur 0 -- -- 79
2019-12-06 18:00:00 11.9 3 Sudoeste 5 Noroeste 0 -- -- 69
2019-12-06 17:00:00 14.1 0 Calma 4 Sudoeste 0 -- -- 60
2019-12-06 16:00:00 13 3 Oeste 6 Norte 0 -- -- 65
2019-12-06 15:00:00 14.4 3 Sudeste 7 Oeste 0 -- -- 56
2019-12-06 14:00:00 12.4 0 Calma 6 Oeste 0 -- -- 68
2019-12-06 13:00:00 12.2 2 Norte 12 Este 0 -- -- 67
2019-12-06 12:00:00 10.4 8 Nordeste 15 Nordeste 0 -- -- 75
2019-12-06 11:00:00 8.3 10 Nordeste 15 Nordeste 0 -- -- 82
2019-12-06 10:00:00 7 8 Este 15 Nordeste 0 -- -- 85
2019-12-06 09:00:00 6.2 10 Nordeste 15 Este 0 -- -- 87
2019-12-06 08:00:00 6.4 6 Este 15 Nordeste 0 -- -- 87
2019-12-06 07:00:00 6.6 12 Nordeste 19 Nordeste 0 -- -- 87
2019-12-06 06:00:00 6.3 6 Nordeste 13 Este 0 -- -- 90
2019-12-06 05:00:00 5.7 3 Este 9 Este 0 -- -- 89
2019-12-06 04:00:00 6.6 5 Nordeste 12 Este 0 -- -- 86
2019-12-06 03:00:00 7.3 6 Nordeste 11 Nordeste 0 -- -- 86
2019-12-06 02:00:00 7.4 7 Nordeste 11 Nordeste 0 -- -- 85
2019-12-06 01:00:00 7.1 4 Este 13 Nordeste 0 -- -- 87
2019-12-06 00:00:00 6.3 9 Nordeste 12 Nordeste 0 -- -- 90
2019-12-05 23:00:00 5.7 5 Este 9 Nordeste 0 -- -- 88
2019-12-05 22:00:00 6.2 8 Nordeste 12 Nordeste 0 -- -- 86
2019-12-05 21:00:00 7.5 8 Nordeste 18 Nordeste 0 -- -- 81
2019-12-05 20:00:00 7.9 9 Nordeste 15 Nordeste 0 -- -- 80
2019-12-05 19:00:00 8.7 10 Nordeste 15 Nordeste 0 -- -- 77
2019-12-05 18:00:00 10.2 9 Nordeste 24 Nordeste 0 -- -- 72
2019-12-05 17:00:00 11.7 15 Nordeste 30 Nordeste 0 -- -- 67
2019-12-05 16:00:00 12.5 19 Nordeste 35 Nordeste 0 -- -- 63
2019-12-05 15:00:00 12.9 22 Nordeste 37 Nordeste 0 -- -- 65
2019-12-05 14:00:00 12.5 21 Nordeste 33 Nordeste 0 -- -- 64
2019-12-05 13:00:00 11.8 24 Nordeste 36 Nordeste 0 -- -- 67
2019-12-05 12:00:00 10.8 25 Nordeste 38 Nordeste 0 -- -- 70
2019-12-05 11:00:00 9.7 23 Nordeste 34 Nordeste 0 -- -- 73
2019-12-05 10:00:00 9.2 24 Nordeste 36 Nordeste 0 -- -- 75
2019-12-05 09:00:00 7.9 21 Nordeste 33 Nordeste 0 -- -- 77
2019-12-05 08:00:00 7.8 21 Nordeste 33 Nordeste 0 -- -- 77
2019-12-05 07:00:00 7.8 13 Nordeste 27 Nordeste 0 -- -- 77
2019-12-05 06:00:00 7.7 15 Nordeste 28 Nordeste 0 -- -- 77
2019-12-05 05:00:00 7.8 17 Nordeste 26 Nordeste 0 -- -- 75
2019-12-05 04:00:00 8 13 Nordeste 30 Este 0 -- -- 75
2019-12-05 03:00:00 8.5 21 Nordeste 31 Nordeste 0 -- -- 73
2019-12-05 02:00:00 8.9 21 Nordeste 31 Nordeste 0 -- -- 74
2019-12-05 01:00:00 9.5 21 Nordeste 30 Nordeste 0 -- -- 69
2019-12-05 00:00:00 8.5 15 Nordeste 23 Nordeste 0 -- -- 77
2019-12-04 23:00:00 5.1 0 Calma 8 Nordeste 0 -- -- 88
2019-12-04 22:00:00 6.5 5 Nordeste 9 Nordeste 0 -- -- 84
2019-12-04 21:00:00 7.6 3 Este 17 Nordeste 0 -- -- 79
2019-12-04 20:00:00 9.2 12 Nordeste 23 Nordeste 0 -- -- 73
2019-12-04 19:00:00 10.3 18 Nordeste 31 Nordeste 0 -- -- 70
2019-12-04 18:00:00 10.4 14 Nordeste 27 Nordeste 0 -- -- 72
2019-12-04 17:00:00 10.6 21 Nordeste 37 Nordeste 0.2 -- -- 72
2019-12-04 16:00:00 11.4 24 Nordeste 44 Nordeste 0 -- -- 67
2019-12-04 15:00:00 12.2 31 Nordeste 45 Nordeste 0 -- -- 67
2019-12-04 14:00:00 11.4 25 Nordeste 39 Nordeste 0 -- -- 76
2019-12-04 13:00:00 9.3 15 Nordeste 25 Nordeste 0 -- -- 83
2019-12-04 12:00:00 8.2 14 Nordeste 24 Nordeste 0.2 -- -- 87
2019-12-04 11:00:00 7.3 10 Nordeste 17 Este 0 -- -- 88
2019-12-04 10:00:00 5.9 0 Calma 9 Este 0 -- -- 93
2019-12-04 09:00:00 5.4 3 Nordeste 12 Nordeste 0 -- -- 93
2019-12-04 08:00:00 5.3 9 Nordeste 18 Nordeste 0.2 -- -- 93
2019-12-04 07:00:00 5.1 10 Nordeste 21 Nordeste 1.4 -- -- 93
2019-12-04 06:00:00 5.2 14 Nordeste 21 Nordeste 0.8 -- -- 92
2019-12-04 05:00:00 5.1 13 Nordeste 21 Este 0.2 -- -- 92
2019-12-04 04:00:00 4.9 10 Nordeste 20 Nordeste 0.2 -- -- 92
2019-12-04 03:00:00 5 13 Nordeste 25 Nordeste 0.4 -- -- 89
2019-12-04 02:00:00 5.1 13 Nordeste 21 Nordeste 0.6 -- -- 88
2019-12-04 01:00:00 5.3 14 Nordeste 23 Nordeste 0 -- -- 83
2019-12-04 00:00:00 5.9 16 Nordeste 24 Nordeste 0 -- -- 77
2019-12-03 23:00:00 5.7 12 Nordeste 19 Nordeste 0 -- -- 79
2019-12-03 22:00:00 5.7 13 Nordeste 19 Este 0 -- -- 79
2019-12-03 21:00:00 -- -- -- -- -- -- -- -- --
2019-12-03 20:00:00 6.2 11 Nordeste 23 Nordeste 0 -- -- 77
2019-12-03 19:00:00 6.7 13 Nordeste 27 Nordeste 0 -- -- 76
2019-12-03 18:00:00 7.3 13 Nordeste 25 Nordeste 0 -- -- 75
2019-12-03 17:00:00 7.8 15 Nordeste 27 Nordeste 0 -- -- 72
2019-12-03 16:00:00 9.1 18 Nordeste 25 Nordeste 0 -- -- 67
2019-12-03 15:00:00 9.2 17 Nordeste 26 Nordeste 0 -- -- 66
2019-12-03 14:00:00 8.9 14 Nordeste 25 Nordeste 0 -- -- 66
2019-12-03 13:00:00 8.2 18 Nordeste 27 Nordeste 0 -- -- 67
2019-12-03 12:00:00 7.1 18 Nordeste 27 Nordeste 0 -- -- 70
2019-12-03 11:00:00 5.7 19 Nordeste 31 Nordeste 0 -- -- 74
2019-12-03 10:00:00 3.7 17 Nordeste 24 Nordeste 0 -- -- 81
2019-12-03 09:00:00 1.7 14 Nordeste 22 Nordeste 0 -- -- 86
2019-12-03 08:00:00 1.6 14 Nordeste 23 Nordeste 0 -- -- 85
2019-12-03 07:00:00 2.5 17 Nordeste 26 Nordeste 0 -- -- 82
2019-12-03 06:00:00 3.3 14 Nordeste 24 Nordeste 0 -- -- 83
2019-12-03 05:00:00 2.7 11 Nordeste 20 Nordeste 0 -- -- 85
2019-12-03 04:00:00 2.9 13 Nordeste 21 Nordeste 0 -- -- 84
2019-12-03 03:00:00 2.4 9 Nordeste 15 Este 0 -- -- 86
2019-12-03 02:00:00 3.1 11 Nordeste 21 Este 0 -- -- 84
2019-12-03 01:00:00 3.6 13 Nordeste 23 Este 0 -- -- 84
2019-12-03 00:00:00 4.2 13 Nordeste 21 Nordeste 0 -- -- 85
2019-12-02 23:00:00 4.6 12 Nordeste 21 Nordeste 0 -- -- 83
2019-12-02 22:00:00 5.2 13 Nordeste 21 Nordeste 0 -- -- 80
2019-12-02 21:00:00 5.4 9 Nordeste 15 Nordeste 0 -- -- 80
2019-12-02 20:00:00 6.9 12 Este 31 Nordeste 0 -- -- 75
2019-12-02 19:00:00 7.5 13 Nordeste 22 Nordeste 0 -- -- 74
2019-12-02 18:00:00 8.9 13 Nordeste 32 Nordeste 0 -- -- 68
2019-12-02 17:00:00 10.5 16 Nordeste 32 Nordeste 0 -- -- 63
2019-12-02 16:00:00 10.9 20 Nordeste 41 Nordeste 0 -- -- 59
2019-12-02 15:00:00 11.2 27 Nordeste 45 Nordeste 0 -- -- 60
2019-12-02 14:00:00 11.4 26 Nordeste 43 Nordeste 0 -- -- 59
2019-12-02 13:00:00 10.6 30 Nordeste 42 Nordeste 0 -- -- 62
2019-12-02 12:00:00 10.1 28 Nordeste 40 Este 0 -- -- 67
2019-12-02 11:00:00 8.3 23 Nordeste 32 Nordeste 0 -- -- 76
2019-12-02 10:00:00 5.9 12 Nordeste 18 Nordeste 0 -- -- 83
2019-12-02 09:00:00 4.9 12 Nordeste 26 Nordeste 0 -- -- 85
2019-12-02 08:00:00 5.7 18 Nordeste 27 Nordeste 0 -- -- 81
2019-12-02 07:00:00 5.7 17 Este 28 Nordeste 0 -- -- 82
2019-12-02 06:00:00 6.4 21 Nordeste 30 Nordeste 0 -- -- 82
2019-12-02 05:00:00 6.8 19 Nordeste 31 Nordeste 0 -- -- 83
2019-12-02 04:00:00 7.2 19 Nordeste 28 Nordeste 0 -- -- 83
2019-12-02 03:00:00 7.4 14 Nordeste 26 Nordeste 0 -- -- 85
2019-12-02 02:00:00 7.5 17 Nordeste 28 Nordeste 0 -- -- 85
2019-12-02 01:00:00 8.2 19 Nordeste 28 Nordeste 0 -- -- 83
2019-12-02 00:00:00 8.6 15 Nordeste 22 Nordeste 0 -- -- 83
2019-12-01 23:00:00 8.6 12 Nordeste 19 Este 0 -- -- 86
2019-12-01 22:00:00 8.5 10 Nordeste 19 Nordeste 0 -- -- 90
2019-12-01 21:00:00 8.7 14 Nordeste 23 Nordeste 0 -- -- 90
2019-12-01 20:00:00 8.7 14 Nordeste 18 Nordeste 0.2 -- -- 93
2019-12-01 19:00:00 8.9 8 Nordeste 13 Nordeste 0.2 -- -- 91
2019-12-01 18:00:00 9.4 5 Nordeste 12 Sudeste 0 -- -- 84
2019-12-01 17:00:00 9.8 4 Sudeste 14 Sudeste 0 -- -- 82
2019-12-01 16:00:00 10.1 6 Sudeste 14 Sudeste 0 -- -- 83
2019-12-01 15:00:00 10.2 6 Sudeste 14 Sur 0 -- -- 83
2019-12-01 14:00:00 9.6 6 Sur 14 Sur 0.2 -- -- 88
2019-12-01 13:00:00 8.8 2 Nordeste 8 Norte 0 -- -- 93
2019-12-01 12:00:00 8.1 3 Nordeste 5 Sudoeste 0 -- -- 91
2019-12-01 11:00:00 7.9 2 Sur 6 Este 0 -- -- 91
2019-12-01 10:00:00 7.5 3 Nordeste 5 Nordeste 0 -- -- 96
2019-12-01 09:00:00 6.3 3 Este 8 Nordeste 0 -- -- 97
2019-12-01 08:00:00 6.5 3 Noroeste 8 Noroeste 0 -- -- 97
2019-12-01 07:00:00 6.3 0 Calma 6 Sudeste 0 -- -- 97
2019-12-01 06:00:00 6 4 Noroeste 10 Nordeste 0 -- -- 96
2019-12-01 05:00:00 7.1 3 Nordeste 4 Nordeste 0 -- -- 96
2019-12-01 04:00:00 7.3 4 Este 9 Este 0 -- -- 96
2019-12-01 03:00:00 7.2 0 Calma 5 Sudoeste 0 -- -- 96
2019-12-01 02:00:00 7.1 4 Sudoeste 8 Sudoeste 0.2 -- -- 95
2019-12-01 01:00:00 7.2 4 Sudoeste 9 Sudoeste 0 -- -- 94
2019-12-01 00:00:00 7.4 0 Calma 15 Este 1 -- -- 92
2019-11-30 23:00:00 7.1 9 Este 29 Nordeste 1.4 -- -- 91
2019-11-30 22:00:00 8.7 12 Nordeste 23 Nordeste 3 -- -- 93
2019-11-30 21:00:00 9.2 12 Nordeste 27 Sudoeste 3.6 -- -- 90
2019-11-30 20:00:00 12.9 14 Sudoeste 28 Sudoeste 0 -- -- 79
2019-11-30 19:00:00 13.2 13 Sudoeste 28 Sudoeste 0 -- -- 77
2019-11-30 18:00:00 13.6 15 Sudoeste 32 Sudoeste 0 -- -- 75
2019-11-30 17:00:00 14.8 19 Sudoeste 32 Sudoeste 0 -- -- 73
2019-11-30 16:00:00 14.2 13 Sudoeste 32 Sur 0 -- -- 76
2019-11-30 15:00:00 14.2 15 Sudoeste 36 Sudoeste 0 -- -- 76
2019-11-30 14:00:00 13.7 19 Sudoeste 31 Sudoeste 0 -- -- 80
2019-11-30 13:00:00 13.7 15 Sudoeste 31 Sudoeste 0 -- -- 83
2019-11-30 12:00:00 13.7 18 Sudoeste 31 Sudoeste 0 -- -- 84
2019-11-30 11:00:00 13.1 14 Sudoeste 30 Sudoeste 0 -- -- 88
2019-11-30 10:00:00 12.6 18 Sudoeste 26 Sudoeste 0 -- -- 91
2019-11-30 09:00:00 12.3 10 Sudoeste 23 Sudoeste 0 -- -- 93
2019-11-30 08:00:00 12.3 12 Sudoeste 23 Sudoeste 0.2 -- -- 93
2019-11-30 07:00:00 12.5 11 Sudoeste 21 Sudoeste 0 -- -- 92
2019-11-30 06:00:00 12.5 9 Sudoeste 17 Sudoeste 0 -- -- 93
2019-11-30 05:00:00 12.6 11 Sudoeste 21 Sudoeste 0 -- -- 92
2019-11-30 04:00:00 12.6 10 Sudoeste 22 Sudoeste 0 -- -- 93
2019-11-30 03:00:00 12.5 8 Sudoeste 16 Sudoeste 0 -- -- 95
2019-11-30 02:00:00 12.4 5 Sudoeste 10 Sudoeste 0.4 -- -- 95
2019-11-30 01:00:00 12.6 5 Sudoeste 14 Sudoeste 0.2 -- -- 94
2019-11-30 00:00:00 12.8 8 Sudoeste 16 Sudoeste 0 -- -- 92
2019-11-29 23:00:00 12.9 8 Sudoeste 15 Sudoeste 0 -- -- 91
2019-11-29 22:00:00 13.1 4 Sur 17 Sudoeste 0 -- -- 90
2019-11-29 21:00:00 13.2 5 Sudoeste 15 Sudoeste 0 -- -- 90
2019-11-29 20:00:00 13.2 8 Sudoeste 15 Sudoeste 0 -- -- 91
2019-11-29 19:00:00 13 4 Sudoeste 18 Sudoeste 0 -- -- 89
2019-11-29 18:00:00 13.6 9 Sudoeste 23 Sudoeste 0 -- -- 88
2019-11-29 17:00:00 14.3 11 Sudoeste 20 Sudoeste 0 -- -- 87
2019-11-29 16:00:00 14.5 13 Sudoeste 21 Sudoeste 0 -- -- 88
2019-11-29 15:00:00 14.8 12 Sudoeste 19 Sudoeste 0 -- -- 83
2019-11-29 14:00:00 14.6 10 Sudoeste 18 Sudoeste 0 -- -- 85
2019-11-29 13:00:00 14.1 6 Sudoeste 13 Sur 0 -- -- 86
2019-11-29 12:00:00 13.5 8 Sudoeste 16 Sudoeste 0 -- -- 88
2019-11-29 11:00:00 13 4 Sur 10 Oeste 0 -- -- 90
2019-11-29 10:00:00 12.6 8 Sudoeste 20 Sudoeste 0 -- -- 90
2019-11-29 09:00:00 12.3 12 Sudoeste 18 Sudoeste 0 -- -- 91
2019-11-29 08:00:00 12.2 8 Sur 19 Sudoeste 0 -- -- 91
2019-11-29 07:00:00 12.1 10 Sudoeste 20 Sur 0 -- -- 91
2019-11-29 06:00:00 12 9 Sur 15 Sudoeste 0 -- -- 90
2019-11-29 05:00:00 12.1 12 Sudoeste 19 Sudoeste 0 -- -- 89
2019-11-29 04:00:00 11.9 8 Sur 34 Sudoeste 0 -- -- 89
2019-11-29 03:00:00 11.8 20 Sudoeste 34 Sudoeste 0 -- -- 87
2019-11-29 02:00:00 11.5 19 Sudoeste 35 Sudoeste 0 -- -- 87
2019-11-29 01:00:00 11.5 20 Sudoeste 33 Sudoeste 0 -- -- 86
2019-11-29 00:00:00 11.5 24 Sudoeste 35 Sur 0 -- -- 87
2019-11-28 23:00:00 11.5 22 Sudoeste 34 Sudoeste 0 -- -- 86
2019-11-28 22:00:00 11.6 19 Sudoeste 29 Sudoeste 0 -- -- 87
2019-11-28 21:00:00 11.7 12 Sudoeste 24 Sudoeste 0 -- -- 86
2019-11-28 20:00:00 11.8 15 Sudoeste 27 Sudoeste 0 -- -- 86
2019-11-28 19:00:00 11.7 12 Sudoeste 22 Sudoeste 0 -- -- 86
2019-11-28 18:00:00 11.6 9 Sudoeste 27 Sudoeste 0 -- -- 86
2019-11-28 17:00:00 11.8 15 Sudoeste 27 Sudoeste 0 -- -- 84
2019-11-28 16:00:00 11.7 13 Sudoeste 25 Sur 0 -- -- 84
2019-11-28 15:00:00 11.2 10 Sudoeste 30 Sudoeste 0 -- -- 87
2019-11-28 14:00:00 11.3 16 Sudoeste 28 Sudoeste 0 -- -- 85
2019-11-28 13:00:00 11.2 15 Sudoeste 28 Sudoeste 0 -- -- 86
2019-11-28 12:00:00 11.3 17 Sudoeste 28 Sudoeste 0 -- -- 84
2019-11-28 11:00:00 10.7 14 Sudoeste 24 Sudoeste 0 -- -- 88
2019-11-28 10:00:00 10 9 Sudoeste 19 Sudoeste 0 -- -- 90
2019-11-28 09:00:00 9.3 13 Sudoeste 23 Sudoeste 0 -- -- 91
2019-11-28 08:00:00 9 8 Sudoeste 19 Sudoeste 0 -- -- 91
2019-11-28 07:00:00 8.9 9 Sudoeste 22 Sudoeste 0 -- -- 92
2019-11-28 06:00:00 8.1 12 Sudoeste 20 Sudoeste 0 -- -- 94
2019-11-28 05:00:00 8.1 7 Sudoeste 21 Sudoeste 0 -- -- 92
2019-11-28 04:00:00 8.4 5 Sudoeste 26 Sudoeste 0 -- -- 90
2019-11-28 03:00:00 8.8 18 Sudoeste 31 Sudoeste 0 -- -- 89
2019-11-28 02:00:00 8.7 17 Sudoeste 29 Sudoeste 0 -- -- 89
2019-11-28 01:00:00 9 16 Sudoeste 26 Sudoeste 0 -- -- 88
2019-11-28 00:00:00 9.5 12 Sudoeste 19 Sudoeste 0 -- -- 87
2019-11-27 23:00:00 9.4 9 Sudoeste 21 Sudoeste 0 -- -- 86
2019-11-27 22:00:00 9.9 9 Sur 24 Sudoeste 0 -- -- 83
2019-11-27 21:00:00 10.8 15 Sudoeste 32 Sudoeste 0 -- -- 81
2019-11-27 20:00:00 11.2 10 Sudoeste 25 Sudoeste 0 -- -- 80
2019-11-27 19:00:00 11.4 17 Sudoeste 26 Sudoeste 0 -- -- 79
2019-11-27 18:00:00 11.6 12 Sudoeste 26 Sudoeste 0 -- -- 74
2019-11-27 17:00:00 12.6 19 Sudoeste 35 Sudoeste 0 -- -- 69
2019-11-27 16:00:00 13.4 21 Sudoeste 35 Sudoeste 0 -- -- 67
2019-11-27 15:00:00 13.3 14 Sudoeste 30 Sudoeste 0 -- -- 67
2019-11-27 14:00:00 12.8 17 Sudoeste 32 Sudoeste 0 -- -- 74
2019-11-27 06:00:00 -- -- -- -- -- -- -- -- --
2019-11-27 05:00:00 11.1 12 Sudoeste 27 Sudoeste 0.4 -- -- 94
2019-11-27 04:00:00 11.6 15 Sudoeste 32 Sudoeste 0.2 -- -- 92
2019-11-27 03:00:00 12.1 19 Sudoeste 34 Sudoeste 0.2 -- -- 89
2019-11-27 02:00:00 12.2 21 Sudoeste 38 Oeste 0 -- -- 87
2019-11-27 01:00:00 12.4 21 Sudoeste 44 Sudoeste 0 -- -- 88
2019-11-27 00:00:00 12.2 25 Sudoeste 47 Sudoeste 0 -- -- 85
2019-11-26 23:00:00 12.7 31 Sudoeste 45 Sudoeste 0 -- -- 89
2019-11-26 22:00:00 13.1 31 Sudoeste 48 Sudoeste 0.2 -- -- 90
2019-11-26 21:00:00 13.1 22 Sudoeste 40 Sur 0.2 -- -- 92
2019-11-26 20:00:00 13.3 22 Sudoeste 43 Sudoeste 0 -- -- 90
2019-11-26 19:00:00 13.4 9 Sudoeste 20 Sudoeste 0 -- -- 89
2019-11-26 18:00:00 13.4 10 Sudoeste 28 Sudoeste 0.2 -- -- 89
2019-11-26 17:00:00 13.6 13 Sudoeste 27 Sudoeste 0.2 -- -- 88
2019-11-26 16:00:00 14 13 Sur 31 Sur 0 -- -- 83
2019-11-26 15:00:00 14 14 Sudoeste 31 Sudoeste 0 -- -- 84
2019-11-26 14:00:00 13.5 14 Sudoeste 27 Sudoeste 0 -- -- 87
2019-11-26 13:00:00 12.2 10 Sudoeste 23 Sudoeste 0 -- -- 91
2019-11-26 12:00:00 11.7 10 Sudoeste 19 Sudoeste 0 -- -- 92
2019-11-26 11:00:00 11.8 9 Sudoeste 21 Sudoeste 0 -- -- 88
2019-11-26 10:00:00 11.3 7 Sudoeste 14 Sudoeste 0 -- -- 90
2019-11-26 09:00:00 11 9 Sur 17 Sur 0 -- -- 90
2019-11-26 08:00:00 11 8 Sudoeste 17 Sudoeste 0 -- -- 92
2019-11-26 07:00:00 10.7 6 Sudoeste 12 Sudoeste 0 -- -- 97
2019-11-26 06:00:00 10.6 0 Calma 10 Oeste 0 -- -- 97
2019-11-26 05:00:00 10.5 3 Oeste 7 Sudoeste 0 -- -- 97
2019-11-26 04:00:00 10.2 3 Oeste 9 Oeste 0 -- -- 96
2019-11-26 03:00:00 8.6 0 Calma 9 Sudoeste 0 -- -- 95
2019-11-26 02:00:00 8.5 3 Sur 7 Sudoeste 0 -- -- 93
2019-11-26 01:00:00 9.5 3 Oeste 12 Sur 0 -- -- 92
2019-11-26 00:00:00 10.1 8 Sur 14 Sur 0 -- -- 92
2019-11-25 23:00:00 10.6 2 Sudoeste 12 Sudoeste 0 -- -- 90
2019-11-25 22:00:00 11.1 5 Sudoeste 13 Sudoeste 0 -- -- 89
2019-11-25 21:00:00 11.3 6 Sudoeste 10 Sudoeste 0 -- -- 87
2019-11-25 20:00:00 12.4 3 Sudoeste 15 Sudoeste 0 -- -- 83
2019-11-25 19:00:00 13.2 11 Sudoeste 17 Sudoeste 0 -- -- 81
2019-11-25 18:00:00 13.9 9 Sur 22 Sur 0 -- -- 78
2019-11-25 17:00:00 14.7 11 Sudoeste 26 Sudoeste 0 -- -- 75
2019-11-25 16:00:00 15.6 16 Sudoeste 28 Sudoeste 0 -- -- 74
2019-11-25 15:00:00 16.4 14 Sudoeste 25 Sudoeste 0 -- -- 70
2019-11-25 14:00:00 16 13 Sudoeste 24 Sudoeste 0 -- -- 71
2019-11-25 13:00:00 15.3 12 Sudoeste 28 Oeste 0 -- -- 75
2019-11-25 12:00:00 14.4 6 Sudoeste 13 Sudoeste 0 -- -- 78
2019-11-25 11:00:00 11.7 10 Sudoeste 27 Sudoeste 0 -- -- 91
2019-11-25 10:00:00 10.5 16 Sudoeste 28 Sudoeste 0 -- -- 94
2019-11-25 09:00:00 9.9 13 Sudoeste 22 Sudoeste 0 -- -- 94
2019-11-25 08:00:00 9.8 14 Sudoeste 24 Sudoeste 0 -- -- 94
2019-11-25 07:00:00 9.6 9 Sudoeste 22 Sur 0 -- -- 94
2019-11-25 06:00:00 9.6 13 Sudoeste 24 Sur 0 -- -- 93
2019-11-25 05:00:00 9.5 12 Sudoeste 24 Sur 0 -- -- 91
2019-11-25 04:00:00 9.2 12 Sudoeste 27 Sur 0 -- -- 91
2019-11-25 03:00:00 8.8 10 Sudoeste 22 Sudoeste 0.6 -- -- 92
2019-11-25 02:00:00 9.2 12 Sudoeste 25 Sur 0 -- -- 89
2019-11-25 01:00:00 9.4 14 Sudoeste 27 Sudoeste 0 -- -- 88
2019-11-25 00:00:00 9.1 12 Sudoeste 21 Sudoeste 0 -- -- 88
2019-11-24 23:00:00 9.1 15 Sudoeste 30 Sudoeste 0 -- -- 85
2019-11-24 22:00:00 8.3 10 Sudoeste 18 Sudoeste 0 -- -- 80
2019-11-24 21:00:00 7 4 Sur 14 Sudoeste 0 -- -- 77
2019-11-24 20:00:00 7.5 7 Sur 15 Sudoeste 0 -- -- 72
2019-11-24 19:00:00 8.3 8 Sudoeste 20 Sur 0 -- -- 69
2019-11-24 18:00:00 9.3 13 Sudoeste 25 Sudoeste 0 -- -- 67
2019-11-24 17:00:00 11.3 15 Sudoeste 31 Sudoeste 0 -- -- 60
2019-11-24 16:00:00 13.2 11 Oeste 25 Oeste 0 -- -- 50
2019-11-24 15:00:00 11.9 15 Sudoeste 24 Oeste 0 -- -- 51
2019-11-24 14:00:00 11.4 4 Oeste 14 Oeste 0 -- -- 56
2019-11-24 13:00:00 10.5 5 Sudoeste 15 Sudoeste 0 -- -- 61
2019-11-24 12:00:00 9.4 9 Sudoeste 13 Sudoeste 0 -- -- 64
2019-11-24 11:00:00 8.2 8 Sudoeste 16 Sudoeste 0 -- -- 70
2019-11-24 10:00:00 6.2 4 Sur 10 Oeste 0 -- -- 79
2019-11-24 09:00:00 4.9 5 Sur 10 Sur 0 -- -- 84
2019-11-24 08:00:00 4.2 5 Sudoeste 10 Sur 0 -- -- 80
2019-11-24 07:00:00 5.3 3 Este 17 Sur 0 -- -- 77
2019-11-24 06:00:00 6.8 4 Sudoeste 40 Sudoeste 0 -- -- 70
2019-11-24 05:00:00 7.7 9 Sudeste 41 Sudoeste 0 -- -- 67
2019-11-24 04:00:00 6.3 12 Sudoeste 19 Sudoeste 0 -- -- 76
2019-11-24 03:00:00 6.2 9 Sudoeste 23 Sudoeste 0 -- -- 78
2019-11-24 02:00:00 6.3 8 Sudoeste 12 Sudoeste 0 -- -- 75
2019-11-24 01:00:00 7.7 0 Calma 24 Oeste 0 -- -- 73
2019-11-24 00:00:00 8 10 Sudoeste 19 Oeste 0 -- -- 69
2019-11-23 23:00:00 7.9 13 Sudoeste 21 Oeste 0 -- -- 67
2019-11-23 22:00:00 7.7 8 Sudoeste 14 Sudoeste 0 -- -- 69
2019-11-23 21:00:00 8.7 9 Oeste 18 Sudoeste 0 -- -- 65
2019-11-23 20:00:00 8.2 4 Sudoeste 14 Sudoeste 0 -- -- 68
2019-11-23 19:00:00 8.6 2 Sur 27 Oeste 0 -- -- 67
2019-11-23 18:00:00 10.5 10 Oeste 24 Noroeste 0 -- -- 55
2019-11-23 17:00:00 11.5 9 Oeste 23 Oeste 0 -- -- 55
2019-11-23 16:00:00 12.6 8 Oeste 26 Oeste 0 -- -- 51
2019-11-23 15:00:00 12.1 13 Noroeste 31 Noroeste 0 -- -- 49
2019-11-23 14:00:00 12.5 19 Oeste 36 Oeste 0 -- -- 55
2019-11-23 13:00:00 11.3 21 Oeste 36 Sudoeste 0 -- -- 58
2019-11-23 12:00:00 11.1 16 Oeste 35 Oeste 0 -- -- 57
2019-11-23 11:00:00 8.4 14 Oeste 35 Oeste 0 -- -- 66
2019-11-23 10:00:00 8.3 22 Oeste 38 Oeste 0 -- -- 67
2019-11-23 09:00:00 7.5 21 Oeste 33 Sudoeste 0 -- -- 68
2019-11-23 08:00:00 7.8 20 Oeste 42 Sudoeste 0 -- -- 68
2019-11-23 07:00:00 7.7 19 Sudoeste 29 Sudoeste 0 -- -- 75
2019-11-23 06:00:00 7.5 17 Sudoeste 42 Oeste 0 -- -- 78
2019-11-23 05:00:00 8.3 26 Sudoeste 39 Sudoeste 0 -- -- 71
2019-11-23 04:00:00 7.9 18 Sudoeste 35 Sudoeste 0 -- -- 78
2019-11-23 03:00:00 8.4 16 Sudoeste 29 Sudoeste 0 -- -- 89
2019-11-23 02:00:00 8.8 15 Sudoeste 28 Sudoeste 0 -- -- 90
2019-11-23 01:00:00 9 14 Sudoeste 36 Sudoeste 0 -- -- 88
2019-11-23 00:00:00 9.2 18 Sudoeste 32 Sudoeste 0 -- -- 86
2019-11-22 23:00:00 9.6 24 Sudoeste 42 Sudoeste 0 -- -- 86
2019-11-22 22:00:00 10.4 19 Sudoeste 36 Sudoeste 0 -- -- 86
2019-11-22 21:00:00 11.2 24 Sudoeste 37 Sudoeste 0 -- -- 87
2019-11-22 20:00:00 11.7 22 Sudoeste 42 Sudoeste 0 -- -- 90
2019-11-22 19:00:00 11.7 20 Sudoeste 42 Sudoeste 0 -- -- 90
2019-11-22 18:00:00 11.7 15 Sudoeste 34 Sudoeste 0 -- -- 91
2019-11-22 17:00:00 12.1 21 Sudoeste 46 Sudoeste 0.4 -- -- 91
2019-11-22 16:00:00 12.6 27 Sur 53 Sur 0 -- -- 87
2019-11-22 15:00:00 12.1 29 Sur 50 Sur 0.4 -- -- 89
2019-11-22 14:00:00 10.8 27 Sur 50 Sur 0.8 -- -- 91
2019-11-22 13:00:00 10.8 31 Sur 49 Sudeste 0 -- -- 87
2019-11-22 12:00:00 11.1 26 Sur 42 Sur 0 -- -- 85
2019-11-22 11:00:00 10.3 27 Sur 41 Sur 0.2 -- -- 88
2019-11-22 10:00:00 9.3 17 Sur 33 Sur 0.8 -- -- 92
2019-11-22 09:00:00 9 16 Sur 30 Sur 0.4 -- -- 91
2019-11-22 08:00:00 8.7 14 Sur 30 Sur 0 -- -- 91
2019-11-22 07:00:00 8.3 11 Sur 23 Sur 0.2 -- -- 92
2019-11-22 06:00:00 8.3 10 Sur 22 Sudoeste 0 -- -- 89
2019-11-22 05:00:00 7.8 10 Sur 21 Sur 0 -- -- 90
2019-11-22 04:00:00 7.7 10 Sudeste 16 Sudeste 0.2 -- -- 91
2019-11-22 03:00:00 7.8 3 Oeste 11 Sur 0 -- -- 91
2019-11-22 02:00:00 7.6 4 Sur 12 Sudoeste 0 -- -- 93
2019-11-22 01:00:00 7.1 0 Calma 4 Sudoeste 0 -- -- 93
2019-11-22 00:00:00 7.8 0 Calma 2 Sudoeste 0 -- -- 93
2019-11-21 23:00:00 7.9 0 Calma 5 Oeste 0 -- -- 93
2019-11-21 22:00:00 8 4 Sudoeste 12 Sudoeste 0 -- -- 94
2019-11-21 21:00:00 7.5 3 Sudoeste 6 Sur 0 -- -- 94
2019-11-21 20:00:00 7.9 0 Calma 5 Sudoeste 0 -- -- 93
2019-11-21 19:00:00 8.5 0 Calma 3 Sudoeste 0 -- -- 92
2019-11-21 18:00:00 8.8 2 Sudoeste 10 Sudoeste 0.2 -- -- 90
2019-11-21 17:00:00 9.7 5 Sudoeste 14 Sudoeste 0 -- -- 83
2019-11-21 16:00:00 9.8 10 Sudoeste 24 Sudoeste 0 -- -- 83
2019-11-21 15:00:00 9.9 11 Sudoeste 22 Sudoeste 0 -- -- 84
2019-11-21 14:00:00 9.4 10 Sudoeste 19 Sudoeste 0 -- -- 87
2019-11-21 13:00:00 9 10 Sudoeste 21 Sudoeste 0 -- -- 90
2019-11-21 12:00:00 8.6 11 Sudoeste 17 Sudoeste 0 -- -- 90
2019-11-21 11:00:00 8.2 10 Sudoeste 16 Sudoeste 0 -- -- 93
2019-11-21 10:00:00 7.2 4 Sudoeste 8 Oeste 0 -- -- 96
2019-11-21 09:00:00 6.5 3 Oeste 5 Oeste 0 -- -- 96
2019-11-21 08:00:00 6.1 0 Calma 5 Sur 0 -- -- 96
2019-11-21 07:00:00 5.9 0 Calma 6 Sur 0 -- -- 96
2019-11-21 06:00:00 5.7 2 Sudoeste 5 Sudoeste 0 -- -- 96
2019-11-21 05:00:00 5.9 3 Oeste 6 Sudoeste 0 -- -- 96
2019-11-21 04:00:00 5.7 0 Calma 4 Sudoeste 0 -- -- 95
2019-11-21 03:00:00 5.9 3 Oeste 5 Oeste 0 -- -- 96
2019-11-21 02:00:00 5.8 0 Calma 2 Sur 0 -- -- 95
2019-11-21 01:00:00 5.7 0 Calma 3 Sudeste 0 -- -- 95
2019-11-21 00:00:00 5.7 0 Calma 2 Sudeste 0.2 -- -- 94
2019-11-20 23:00:00 5.7 0 Calma 2 Sudeste 0 -- -- 94
2019-11-20 22:00:00 5.7 0 Calma 2 Sur 0.4 -- -- 93
2019-11-20 21:00:00 5.8 0 Calma 4 Sudoeste 0.2 -- -- 93
2019-11-20 20:00:00 5.9 3 Sudoeste 8 Oeste 0.8 -- -- 92
2019-11-20 19:00:00 6.2 4 Sudoeste 12 Sudoeste 0.6 -- -- 91
2019-11-20 18:00:00 7 5 Sudoeste 23 Sudoeste 0.4 -- -- 87
2019-11-20 17:00:00 8.3 10 Sudoeste 19 Sur 0.2 -- -- 76
2019-11-20 16:00:00 9.2 4 Sur 9 Sur 0 -- -- 73
2019-11-20 15:00:00 9.2 5 Sudoeste 13 Sudoeste 0 -- -- 70
2019-11-20 14:00:00 9.2 6 Oeste 10 Sudoeste 0 -- -- 69
2019-11-20 13:00:00 8.3 3 Nordeste 7 Sudoeste 0 -- -- 72
2019-11-20 12:00:00 6.9 0 Calma 9 Nordeste 0 -- -- 77
2019-11-20 11:00:00 4.4 7 Nordeste 12 Nordeste 0 -- -- 86
2019-11-20 10:00:00 1.3 3 Este 13 Nordeste 0 -- -- 94
2019-11-20 09:00:00 -0.1 6 Nordeste 12 Este 0 -- -- 95
2019-11-20 08:00:00 -0.8 2 Este 7 Nordeste 0 -- -- 92
2019-11-20 07:00:00 0.1 4 Nordeste 12 Nordeste 0 -- -- 94
2019-11-20 06:00:00 0.1 5 Nordeste 10 Nordeste 0 -- -- 94
2019-11-20 05:00:00 -0.3 6 Nordeste 10 Nordeste 0 -- -- 94
2019-11-20 04:00:00 0.1 4 Este 6 Este 0 -- -- 92
2019-11-20 03:00:00 0.7 5 Este 10 Nordeste 0 -- -- 93
2019-11-20 02:00:00 0.8 4 Este 8 Nordeste 0 -- -- 92
2019-11-20 01:00:00 1.4 5 Este 8 Nordeste 0 -- -- 91
2019-11-20 00:00:00 1.9 3 Nordeste 9 Este 0 -- -- 90
2019-11-19 23:00:00 2.4 3 Nordeste 8 Nordeste 0 -- -- 87
2019-11-19 22:00:00 2.8 5 Nordeste 6 Nordeste 0 -- -- 86
2019-11-19 21:00:00 3.4 3 Nordeste 5 Nordeste 0 -- -- 85
2019-11-19 20:00:00 4.6 2 Sudoeste 5 Sur 0 -- -- 77
2019-11-19 19:00:00 5.6 0 Calma 5 Sur 0 -- -- 73
2019-11-19 18:00:00 7.7 4 Sur 8 Sudoeste 0 -- -- 68
2019-11-19 17:00:00 9.3 5 Sur 20 Oeste 0 -- -- 63
2019-11-19 16:00:00 10 12 Sudoeste 18 Sudoeste 0 -- -- 59
2019-11-19 15:00:00 10 10 Sudoeste 19 Sudoeste 0 -- -- 58
2019-11-19 14:00:00 10.1 12 Sudoeste 21 Oeste 0 -- -- 56
2019-11-19 13:00:00 9.7 9 Oeste 17 Sudoeste 0 -- -- 61
2019-11-19 12:00:00 7.8 2 Sudoeste 6 Oeste 0 -- -- 65
2019-11-19 11:00:00 4.7 2 Este 7 Este 0 -- -- 77
2019-11-19 10:00:00 1.2 5 Este 9 Este 0 -- -- 93
2019-11-19 09:00:00 -2.3 5 Nordeste 8 Nordeste 0 -- -- 95
2019-11-19 08:00:00 -4.1 2 Sudeste 5 Sudeste 0 -- -- 93
2019-11-19 07:00:00 -3.8 0 Calma 6 Este 0 -- -- 93
2019-11-19 06:00:00 -2.6 5 Nordeste 7 Nordeste 0 -- -- 93
2019-11-19 05:00:00 -2.8 0 Calma 6 Este 0 -- -- 92
2019-11-19 04:00:00 -2 0 Calma 5 Oeste 0 -- -- 92
2019-11-19 03:00:00 -1.2 2 Este 10 Nordeste 0 -- -- 91
2019-11-19 02:00:00 -0.5 3 Nordeste 8 Nordeste 0 -- -- 90
2019-11-19 01:00:00 0.7 4 Nordeste 9 Nordeste 0 -- -- 84
2019-11-19 00:00:00 1.4 6 Nordeste 13 Nordeste 0 -- -- 85
2019-11-18 23:00:00 1.9 6 Nordeste 13 Nordeste 0 -- -- 82
2019-11-18 22:00:00 3.1 4 Noroeste 10 Oeste 0 -- -- 81
2019-11-18 21:00:00 4.5 4 Norte 9 Norte 0 -- -- 73
2019-11-18 20:00:00 5.9 0 Calma 19 Norte 0 -- -- 68
2019-11-18 19:00:00 6.6 9 Noroeste 18 Noroeste 0 -- -- 66
2019-11-18 18:00:00 8.3 10 Noroeste 22 Noroeste 0 -- -- 60
2019-11-18 17:00:00 9.5 10 Norte 31 Noroeste 0 -- -- 56
2019-11-18 16:00:00 10.3 21 Noroeste 32 Noroeste 0 -- -- 52
2019-11-18 15:00:00 10.5 16 Noroeste 38 Noroeste 0 -- -- 53
2019-11-18 14:00:00 10.5 20 Noroeste 38 Noroeste 0 -- -- 56
2019-11-18 13:00:00 10.8 21 Noroeste 35 Norte 0 -- -- 56
2019-11-18 12:00:00 9.4 5 Oeste 10 Este 0 -- -- 61
2019-11-18 11:00:00 7.9 5 Este 12 Nordeste 0 -- -- 69
2019-11-18 10:00:00 4.4 0 Calma 8 Este 0 -- -- 89
2019-11-18 09:00:00 0.9 2 Sudoeste 6 Oeste 0 -- -- 95
2019-11-18 08:00:00 0.1 0 Calma 6 Noroeste 0 -- -- 90
2019-11-18 07:00:00 1.3 3 Norte 8 Norte 0 -- -- 91
2019-11-18 06:00:00 2.4 4 Sudeste 10 Noroeste 0 -- -- 86
2019-11-18 05:00:00 4.9 7 Noroeste 19 Norte 0 -- -- 79
2019-11-18 04:00:00 3.9 5 Nordeste 14 Sudeste 0 -- -- 83
2019-11-18 03:00:00 3.9 3 Noroeste 18 Norte 0 -- -- 82
2019-11-18 02:00:00 6.1 15 Norte 24 Norte 0 -- -- 73
2019-11-18 01:00:00 3.7 8 Norte 15 Noroeste 0 -- -- 96
2019-11-18 00:00:00 2.4 2 Noroeste 9 Nordeste 0 -- -- 94
2019-11-17 23:00:00 4.1 4 Nordeste 12 Nordeste 0 -- -- 92
2019-11-17 22:00:00 6 3 Sudoeste 8 Sudoeste 0 -- -- 89
2019-11-17 21:00:00 7.5 5 Sudoeste 22 Sudoeste 0 -- -- 90
2019-11-17 20:00:00 7.6 12 Sudoeste 27 Sudoeste 0.2 -- -- 93
2019-11-17 19:00:00 7.5 15 Sudoeste 28 Sudoeste 0 -- -- 92
2019-11-17 18:00:00 7.3 16 Sudoeste 31 Sudoeste 0 -- -- 91
2019-11-17 17:00:00 7.2 15 Sudoeste 33 Sudoeste 0 -- -- 90
2019-11-17 16:00:00 7.1 21 Sudoeste 34 Sudoeste 0 -- -- 90
2019-11-17 15:00:00 7.2 15 Sudoeste 33 Sudoeste 0.4 -- -- 90
2019-11-17 14:00:00 8.1 19 Sudoeste 36 Sudoeste 0 -- -- 80
2019-11-17 13:00:00 7.7 15 Sudoeste 25 Sudoeste 0 -- -- 75
2019-11-17 12:00:00 6.1 13 Sudoeste 25 Sudoeste 0 -- -- 77
2019-11-17 11:00:00 5.8 11 Sudoeste 21 Sudoeste 0 -- -- 76
2019-11-17 10:00:00 4.3 9 Sudoeste 14 Sudoeste 0 -- -- 80
2019-11-17 09:00:00 0 0 Calma 4 Norte 0 -- -- 94
2019-11-17 08:00:00 -1.3 4 Nordeste 8 Nordeste 0 -- -- 94
2019-11-17 07:00:00 -1.9 0 Calma 4 Noroeste 0 -- -- 93
2019-11-17 06:00:00 -1.7 3 Nordeste 5 Este 0 -- -- 93
2019-11-17 05:00:00 -1.7 0 Calma 3 Este 0 -- -- 93
2019-11-17 04:00:00 -2.2 0 Calma 3 Nordeste 0 -- -- 91
2019-11-17 03:00:00 -1.8 0 Calma 7 Nordeste 0 -- -- 91
2019-11-17 02:00:00 -1.2 0 Calma 3 Norte 0 -- -- 90
2019-11-17 01:00:00 -0.9 0 Calma 4 Sur 0 -- -- 90
2019-11-17 00:00:00 -0.4 2 Sudoeste 5 Sudoeste 0 -- -- 88
2019-11-16 23:00:00 0.4 0 Calma 4 Sur 0 -- -- 84
2019-11-16 22:00:00 2.2 3 Sudoeste 12 Sudoeste 0 -- -- 76
2019-11-16 21:00:00 2.5 6 Sur 9 Sudeste 0 -- -- 76
2019-11-16 20:00:00 3.5 3 Sudeste 4 Sur 0 -- -- 72
2019-11-16 19:00:00 6.2 4 Sur 11 Noroeste 0 -- -- 61
2019-11-16 18:00:00 8.9 6 Norte 24 Noroeste 0 -- -- 50
2019-11-16 17:00:00 10.2 9 Norte 17 Norte 0 -- -- 45
2019-11-16 16:00:00 10.8 4 Noroeste 17 Noroeste 0 -- -- 46
2019-11-16 15:00:00 10.9 5 Oeste 14 Sudoeste 0 -- -- 48
2019-11-16 14:00:00 9.9 8 Oeste 16 Oeste 0 -- -- 49
2019-11-16 13:00:00 9.2 6 Oeste 17 Sudoeste 0 -- -- 53
2019-11-16 12:00:00 8.2 7 Oeste 15 Sudoeste 0 -- -- 56
2019-11-16 11:00:00 6.8 4 Oeste 10 Sudoeste 0 -- -- 64
2019-11-16 10:00:00 4.7 0 Calma 8 Sudoeste 0 -- -- 71
2019-11-16 09:00:00 2.2 5 Sudoeste 10 Nordeste 0 -- -- 79
2019-11-16 08:00:00 1.7 5 Este 16 Nordeste 0 -- -- 79
2019-11-16 07:00:00 1.7 7 Este 12 Este 0 -- -- 80
2019-11-16 06:00:00 1.8 6 Este 16 Nordeste 0 -- -- 80
2019-11-16 05:00:00 4.2 9 Norte 31 Norte 0 -- -- 69
2019-11-16 04:00:00 4.4 14 Norte 27 Norte 0 -- -- 69
2019-11-16 03:00:00 4.4 2 Norte 12 Noroeste 0 -- -- 70
2019-11-16 02:00:00 4.1 6 Nordeste 15 Norte 0 -- -- 73
2019-11-16 01:00:00 3.9 3 Este 9 Nordeste 0 -- -- 77
2019-11-16 00:00:00 5.5 4 Noroeste 12 Oeste 0 -- -- 72
2019-11-15 23:00:00 6.4 7 Oeste 22 Oeste 0 -- -- 68
2019-11-15 22:00:00 6.9 15 Oeste 23 Oeste 0 -- -- 64
2019-11-15 21:00:00 6.6 7 Oeste 10 Oeste 0 -- -- 65
2019-11-15 20:00:00 7 7 Sudoeste 13 Oeste 0 -- -- 61
2019-11-15 19:00:00 7.5 9 Oeste 15 Oeste 0 -- -- 59
2019-11-15 18:00:00 8.3 5 Oeste 16 Oeste 0 -- -- 57
2019-11-15 17:00:00 8.9 7 Noroeste 25 Noroeste 0 -- -- 51
2019-11-15 16:00:00 9 13 Noroeste 23 Noroeste 0 -- -- 50
2019-11-15 15:00:00 9.4 12 Norte 33 Noroeste 0 -- -- 53
2019-11-15 14:00:00 9.8 19 Noroeste 33 Noroeste 0 -- -- 53
2019-11-15 13:00:00 9.4 10 Noroeste 22 Oeste 0 -- -- 56
2019-11-15 12:00:00 8.1 9 Sudoeste 17 Oeste 0 -- -- 65
2019-11-15 11:00:00 5.4 7 Sudoeste 15 Sudoeste 0 -- -- 77
2019-11-15 10:00:00 4.7 5 Sudoeste 12 Sudoeste 0 -- -- 81
2019-11-15 09:00:00 3.8 3 Sudoeste 11 Sudoeste 0 -- -- 83
2019-11-15 08:00:00 3.3 4 Sudoeste 9 Sur 0 -- -- 82
2019-11-15 07:00:00 3.8 5 Sur 12 Sudoeste 0 -- -- 80
2019-11-15 06:00:00 2.7 0 Calma 10 Sudoeste 0 -- -- 86
2019-11-15 05:00:00 2.4 0 Calma 4 Oeste 0 -- -- 89
2019-11-15 04:00:00 2.6 3 Este 10 Sur 0 -- -- 87
2019-11-15 03:00:00 2.7 3 Sudoeste 5 Sur 0 -- -- 88
2019-11-15 02:00:00 3.7 2 Sur 8 Oeste 0 -- -- 85
2019-11-15 01:00:00 4.7 5 Sudoeste 9 Sudoeste 0 -- -- 79
2019-11-15 00:00:00 5.4 6 Oeste 20 Oeste 0 -- -- 76
2019-11-14 23:00:00 5.9 9 Oeste 27 Oeste 0 -- -- 75
2019-11-14 22:00:00 5 12 Oeste 23 Sudoeste 0 -- -- 82
2019-11-14 21:00:00 4.4 3 Este 31 Oeste 0.4 -- -- 88
2019-11-14 20:00:00 7.2 22 Oeste 42 Oeste 0 -- -- 69
2019-11-14 19:00:00 6.1 15 Sudoeste 49 Oeste 0.2 -- -- 81
2019-11-14 18:00:00 5.8 13 Sudoeste 48 Oeste 0 -- -- 77
2019-11-14 17:00:00 7.9 42 Oeste 65 Oeste 0 -- -- 64
2019-11-14 16:00:00 10.3 30 Oeste 53 Oeste 0 -- -- 45
2019-11-14 15:00:00 9.2 23 Oeste 44 Sudoeste 0 -- -- 51
2019-11-14 14:00:00 9.3 23 Oeste 47 Sudoeste 0 -- -- 53
2019-11-14 13:00:00 9.2 27 Oeste 44 Oeste 0.2 -- -- 55
2019-11-14 12:00:00 8.4 18 Oeste 32 Oeste 0 -- -- 63
2019-11-14 11:00:00 6.7 6 Sur 10 Sur 0 -- -- 82
2019-11-14 10:00:00 5.8 4 Sur 8 Este 0 -- -- 86
2019-11-14 09:00:00 5.7 6 Nordeste 33 Norte 0.2 -- -- 82
2019-11-14 08:00:00 7.1 9 Oeste 30 Sudoeste 1 -- -- 90
2019-11-14 07:00:00 7.5 19 Sudoeste 39 Sudoeste 0 -- -- 85
2019-11-14 06:00:00 7.9 18 Sudoeste 34 Sudoeste 0 -- -- 82
2019-11-14 05:00:00 8.4 14 Sudoeste 26 Sudoeste 0 -- -- 86
2019-11-14 04:00:00 8.6 9 Sudoeste 21 Sudoeste 0 -- -- 83
2019-11-14 03:00:00 8.5 10 Sudoeste 19 Sudoeste 0 -- -- 89
2019-11-14 02:00:00 8.3 9 Sudoeste 15 Oeste 0 -- -- 88
2019-11-14 01:00:00 8.5 9 Sudoeste 19 Sudoeste 0 -- -- 87
2019-11-14 00:00:00 7.3 6 Oeste 13 Oeste 0 -- -- 87
2019-11-13 23:00:00 6.6 0 Calma 4 Norte 0 -- -- 85
2019-11-13 22:00:00 7.8 2 Oeste 8 Sur 0 -- -- 79
2019-11-13 21:00:00 9.2 3 Sur 6 Noroeste 0 -- -- 75
2019-11-13 20:00:00 11.6 5 Oeste 13 Oeste 0 -- -- 65
2019-11-13 19:00:00 13.3 10 Oeste 23 Oeste 0 -- -- 56
2019-11-13 18:00:00 13.6 8 Sudoeste 17 Oeste 0 -- -- 56
2019-11-13 17:00:00 15.5 5 Sudoeste 15 Sudoeste 0 -- -- 53
2019-11-13 16:00:00 17.1 9 Sudoeste 15 Sudoeste 0 -- -- 50
2019-11-13 15:00:00 16.3 3 Sudoeste 16 Este 0 -- -- 48
2019-11-13 14:00:00 16.1 11 Este 19 Este 0 -- -- 52
2019-11-13 13:00:00 15.2 9 Norte 23 Este 0.2 -- -- 56
2019-11-13 12:00:00 14.4 13 Nordeste 26 Norte 0 -- -- 60
2019-11-13 11:00:00 13.8 6 Noroeste 22 Norte 0 -- -- 69
2019-11-13 10:00:00 11.8 12 Norte 25 Noroeste 0 -- -- 78
2019-11-13 09:00:00 11.4 7 Sudoeste 25 Sudoeste 0 -- -- 92
2019-11-13 08:00:00 11.1 14 Sudoeste 30 Sudoeste 0 -- -- 92
2019-11-13 07:00:00 11 21 Sudoeste 37 Sudoeste 0.2 -- -- 92
2019-11-13 06:00:00 10.9 23 Sudoeste 39 Sudoeste 0 -- -- 91
2019-11-13 05:00:00 10.7 23 Sudoeste 40 Sudoeste 0.8 -- -- 92
2019-11-13 04:00:00 10.4 26 Sudoeste 39 Sudoeste 0.8 -- -- 93
2019-11-13 03:00:00 10.1 23 Sudoeste 39 Sudoeste 0.6 -- -- 92
2019-11-13 02:00:00 10 16 Sudoeste 37 Sudoeste 0 -- -- 87
2019-11-13 01:00:00 9.3 20 Sudoeste 33 Sudoeste 0 -- -- 86
2019-11-13 00:00:00 9 18 Sudoeste 31 Sudoeste 0.2 -- -- 86
2019-11-12 23:00:00 9.4 13 Sudoeste 31 Oeste 0.2 -- -- 83
2019-11-12 22:00:00 10.5 19 Sudoeste 31 Sudoeste 0 -- -- 72
2019-11-12 21:00:00 10.1 7 Sudoeste 21 Sudoeste 0 -- -- 74
2019-11-12 20:00:00 9.9 8 Sudoeste 15 Sudoeste 0 -- -- 69
2019-11-12 19:00:00 9 4 Sudoeste 9 Sudoeste 0 -- -- 62
2019-11-12 18:00:00 11.1 7 Sudoeste 21 Oeste 0 -- -- 53
2019-11-12 17:00:00 12.5 6 Sudoeste 16 Oeste 0 -- -- 49
2019-11-12 16:00:00 12.9 11 Oeste 20 Oeste 0 -- -- 48
2019-11-12 15:00:00 14 8 Oeste 20 Oeste 0 -- -- 45
2019-11-12 14:00:00 13.4 9 Oeste 21 Oeste 0 -- -- 48
2019-11-12 13:00:00 12.2 4 Sudoeste 13 Oeste 0 -- -- 54
2019-11-12 12:00:00 10.7 6 Sudeste 11 Sudeste 0 -- -- 59
2019-11-12 11:00:00 7.6 5 Oeste 9 Sudoeste 0 -- -- 70
2019-11-12 10:00:00 5.4 2 Nordeste 9 Nordeste 0 -- -- 82
2019-11-12 09:00:00 1.3 2 Sudeste 6 Norte 0 -- -- 93
2019-11-12 08:00:00 0.6 3 Nordeste 6 Nordeste 0 -- -- 91
2019-11-12 07:00:00 1.5 2 Sudeste 5 Sudoeste 0 -- -- 90
2019-11-12 06:00:00 2.5 3 Sudoeste 11 Sudoeste 0 -- -- 87
2019-11-12 05:00:00 2.8 4 Nordeste 7 Nordeste 0 -- -- 88
2019-11-12 04:00:00 3.9 4 Sur 16 Nordeste 0 -- -- 82
2019-11-12 03:00:00 3.1 12 Nordeste 16 Nordeste 0 -- -- 88
2019-11-12 02:00:00 1.2 8 Nordeste 11 Nordeste 0 -- -- 92
2019-11-12 01:00:00 1.4 3 Sudeste 7 Sudoeste 0 -- -- 89
2019-11-12 00:00:00 1.8 3 Sudeste 8 Sur 0 -- -- 88
2019-11-11 23:00:00 2.9 4 Sur 6 Sudeste 0 -- -- 85
2019-11-11 22:00:00 4.6 4 Este 7 Nordeste 0 -- -- 82
2019-11-11 21:00:00 5.4 2 Este 5 Sudeste 0 -- -- 82
2019-11-11 20:00:00 7.7 4 Sur 12 Nordeste 0 -- -- 76
2019-11-11 19:00:00 9.3 9 Nordeste 18 Nordeste 0 -- -- 75
2019-11-11 18:00:00 11.3 5 Sudoeste 10 Sudoeste 0 -- -- 73
2019-11-11 17:00:00 12.5 3 Sudoeste 11 Sudoeste 0 -- -- 64
2019-11-11 16:00:00 12.8 3 Oeste 12 Sudoeste 0 -- -- 61
2019-11-11 15:00:00 12.1 7 Sudoeste 14 Sudoeste 0 -- -- 64
2019-11-11 14:00:00 11.5 8 Sudoeste 11 Sudoeste 0 -- -- 66
2019-11-11 13:00:00 10.7 5 Oeste 9 Oeste 0 -- -- 70
2019-11-11 12:00:00 8.6 5 Sudoeste 10 Sudoeste 0 -- -- 75
2019-11-11 11:00:00 6.9 5 Sudoeste 9 Sudoeste 0 -- -- 81
2019-11-11 10:00:00 5.4 0 Calma 3 Sur 0 -- -- 88
2019-11-11 09:00:00 4.3 0 Calma 2 Sudoeste 0 -- -- 92
2019-11-11 08:00:00 3.5 3 Este 4 Este 0 -- -- 92
2019-11-11 07:00:00 2.7 2 Sudoeste 3 Sudeste 0 -- -- 93
2019-11-11 06:00:00 2.2 0 Calma 2 Este 0 -- -- 94
2019-11-11 05:00:00 1.5 2 Sur 5 Sudoeste 0 -- -- 93
2019-11-11 04:00:00 0.9 0 Calma 6 Noroeste 0 -- -- 93
2019-11-11 03:00:00 0.8 4 Sudeste 6 Sudoeste 0 -- -- 91
2019-11-11 02:00:00 0.9 3 Sudeste 7 Oeste 0 -- -- 89
2019-11-11 01:00:00 1.8 2 Sudeste 10 Oeste 0 -- -- 87
2019-11-11 00:00:00 2.2 4 Sudoeste 8 Sudoeste 0 -- -- 83
2019-11-10 23:00:00 4.6 3 Nordeste 13 Noroeste 0 -- -- 77
2019-11-10 22:00:00 3 4 Sur 13 Norte 0 -- -- 85
2019-11-10 21:00:00 4.2 5 Norte 14 Norte 0 -- -- 83
2019-11-10 20:00:00 4.6 0 Calma 5 Este 0 -- -- 81
2019-11-10 19:00:00 5.9 0 Calma 12 Nordeste 0 -- -- 77
2019-11-10 18:00:00 6.4 11 Nordeste 38 Noroeste 0 -- -- 75
2019-11-10 17:00:00 9.5 11 Noroeste 22 Noroeste 0 -- -- 59
2019-11-10 16:00:00 9.1 14 Oeste 33 Noroeste 0 -- -- 63
2019-11-10 15:00:00 10.1 18 Oeste 33 Noroeste 0 -- -- 58
2019-11-10 14:00:00 10.7 19 Noroeste 37 Noroeste 0 -- -- 52
2019-11-10 13:00:00 10.2 19 Noroeste 37 Noroeste 0 -- -- 53
2019-11-10 12:00:00 9.9 17 Noroeste 36 Oeste 0 -- -- 51
2019-11-10 11:00:00 9.6 20 Noroeste 35 Noroeste 0 -- -- 53
2019-11-10 10:00:00 7.8 3 Norte 11 Este 0 -- -- 60
2019-11-10 09:00:00 4.8 5 Este 11 Este 0 -- -- 75
2019-11-10 08:00:00 3.5 4 Este 8 Nordeste 0 -- -- 74
2019-11-10 07:00:00 5.1 4 Norte 15 Norte 0 -- -- 69
2019-11-10 06:00:00 5.6 5 Norte 25 Norte 0 -- -- 70
2019-11-10 05:00:00 4.4 4 Nordeste 13 Noroeste 0 -- -- 77
2019-11-10 04:00:00 7.1 6 Noroeste 18 Norte 0 -- -- 68
2019-11-10 03:00:00 7.9 6 Noroeste 35 Noroeste 0 -- -- 65
2019-11-10 02:00:00 6.5 4 Oeste 14 Noroeste 0 -- -- 87
2019-11-10 01:00:00 6.1 6 Sudoeste 10 Sudoeste 0 -- -- 92
2019-11-10 00:00:00 7.6 4 Noroeste 15 Sudoeste 0 -- -- 89
2019-11-09 23:00:00 7.9 7 Sudoeste 18 Sudoeste 0 -- -- 90
2019-11-09 22:00:00 7.4 5 Sudoeste 11 Sudoeste 0 -- -- 90
2019-11-09 21:00:00 7.9 6 Sudoeste 16 Sudoeste 0 -- -- 87
2019-11-09 20:00:00 7.8 9 Sudoeste 21 Sudoeste 0 -- -- 87
2019-11-09 19:00:00 7.7 10 Sur 16 Sur 0 -- -- 85
2019-11-09 18:00:00 7.7 7 Sudoeste 36 Sudoeste 0 -- -- 82
2019-11-09 17:00:00 9.6 22 Sudoeste 37 Sudoeste 0 -- -- 69
2019-11-09 16:00:00 11.2 18 Sudoeste 30 Sudoeste 0 -- -- 51
2019-11-09 15:00:00 11.6 19 Sudoeste 34 Sudoeste 0 -- -- 51
2019-11-09 14:00:00 11.9 12 Sudoeste 26 Sudoeste 0 -- -- 54
2019-11-09 13:00:00 11.5 17 Oeste 27 Sudoeste 0 -- -- 53
2019-11-09 12:00:00 11.3 16 Oeste 23 Oeste 0 -- -- 54
2019-11-09 11:00:00 9.9 15 Oeste 26 Oeste 0 -- -- 60
2019-11-09 10:00:00 7.3 3 Sudoeste 6 Sudoeste 0 -- -- 73
2019-11-09 09:00:00 3.1 2 Este 6 Nordeste 0 -- -- 92
2019-11-09 08:00:00 1.6 0 Calma 4 Nordeste 0 -- -- 90
2019-11-09 07:00:00 2 0 Calma 5 Este 0 -- -- 89
2019-11-09 06:00:00 2 0 Calma 7 Sudoeste 0 -- -- 86
2019-11-09 05:00:00 2.6 3 Sudoeste 7 Sudoeste 0 -- -- 84
2019-11-09 04:00:00 3.5 6 Sudoeste 15 Sudoeste 0 -- -- 79
2019-11-09 03:00:00 4.2 6 Sudoeste 11 Sur 0 -- -- 78
2019-11-09 02:00:00 4.1 3 Noroeste 12 Oeste 0 -- -- 77
2019-11-09 01:00:00 4.9 2 Sudoeste 11 Sur 0 -- -- 74
2019-11-09 00:00:00 7.4 6 Oeste 22 Oeste 0 -- -- 65
2019-11-08 23:00:00 8.1 12 Oeste 18 Oeste 0 -- -- 63
2019-11-08 22:00:00 8.1 8 Sudoeste 29 Oeste 0 -- -- 64
2019-11-08 21:00:00 9.4 15 Oeste 27 Oeste 0 -- -- 58
2019-11-08 20:00:00 9.8 11 Oeste 27 Oeste 0 -- -- 55
2019-11-08 19:00:00 10 8 Oeste 29 Noroeste 0 -- -- 53
2019-11-08 18:00:00 11.5 16 Norte 25 Norte 0 -- -- 41
2019-11-08 17:00:00 11.9 4 Norte 34 Oeste 0 -- -- 43
2019-11-08 16:00:00 13 14 Noroeste 40 Noroeste 0 -- -- 39
2019-11-08 15:00:00 12.4 20 Noroeste 42 Noroeste 0 -- -- 39
2019-11-08 14:00:00 12.8 18 Noroeste 41 Noroeste 0 -- -- 38
2019-11-08 13:00:00 11.9 15 Oeste 37 Oeste 0 -- -- 42
2019-11-08 12:00:00 9.9 12 Sudoeste 30 Oeste 0 -- -- 54
2019-11-08 11:00:00 9.2 19 Oeste 31 Oeste 0 -- -- 58
2019-11-08 10:00:00 7.6 17 Oeste 29 Oeste 0 -- -- 61
2019-11-08 09:00:00 5.9 16 Oeste 28 Oeste 0 -- -- 68
2019-11-08 08:00:00 5 12 Oeste 31 Oeste 0 -- -- 70
2019-11-08 07:00:00 5.2 17 Oeste 27 Oeste 0 -- -- 66
2019-11-08 06:00:00 4.6 14 Oeste 27 Oeste 0 -- -- 71
2019-11-08 05:00:00 4.1 10 Oeste 19 Oeste 0 -- -- 70
2019-11-08 04:00:00 5.2 12 Oeste 24 Oeste 0 -- -- 67
2019-11-08 03:00:00 5.3 10 Sudoeste 27 Oeste 0 -- -- 68
2019-11-08 02:00:00 6 13 Sudoeste 25 Sudoeste 0 -- -- 66
2019-11-08 01:00:00 5.5 15 Sudoeste 24 Sudoeste 0 -- -- 70
2019-11-08 00:00:00 5.6 12 Oeste 21 Oeste 0 -- -- 71